EW5196 Weather Reports


Display with metric or nautical units.
time (UTC)temp
F
wind
direction
speed
MPH
gust
MPH
rain 1hr
in
rain 24hr
in
rain mn
in
humidity
%
barometer
mb
20260510151111 78 166 2.0 3.0 0.00 0.00 0.00 42 1016.1
20260510150606 78 174 2.0 3.0 0.00 0.00 0.00 43 1016.2
20260510145559 77 154 1.0 4.0 0.00 0.00 0.00 42 1016.2
20260510145055 78 166 1.0 2.0 0.00 0.00 0.00 46 1016.2
20260510144551 77 190 1.0 3.0 0.00 0.00 0.00 44 1016.2
20260510144048 77 170 2.0 2.0 0.00 0.00 0.00 46 1016.1
20260510143543 77 168 2.0 2.0 0.00 0.00 0.00 46 1016.1
20260510143040 76 173 2.0 3.0 0.00 0.00 0.00 46 1016.3
20260510142536 77 180 2.0 2.0 0.00 0.00 0.00 47 1016.0
20260510142033 76 196 1.0 3.0 0.00 0.00 0.00 48 1016.0
20260510141530 74 178 1.0 3.0 0.00 0.00 0.00 50 1016.1
20260510141028 74 142 2.0 4.0 0.00 0.00 0.00 48 1016.1
20260510140524 74 146 2.0 2.0 0.00 0.00 0.00 52 1016.0
20260510140023 73 170 2.0 2.0 0.00 0.00 0.00 53 1016.0
20260510135519 71 197 1.0 3.0 0.00 0.00 0.00 56 1015.9
20260510135015 71 160 2.0 2.0 0.00 0.00 0.00 60 1016.0
20260510134513 70 176 2.0 3.0 0.00 0.00 0.00 61 1015.9
20260510134010 69 143 2.0 3.0 0.00 0.00 0.00 61 1016.1
20260510133505 69 151 2.0 2.0 0.00 0.00 0.00 66 1016.1
20260510133001 68 148 3.0 3.0 0.00 0.00 0.00 66 1016.1
20260510132459 68 157 2.0 3.0 0.00 0.00 0.00 69 1016.0
20260510131955 67 162 2.0 2.0 0.00 0.00 0.00 68 1015.9
20260510131453 67 156 2.0 2.0 0.00 0.00 0.00 71 1016.2
20260510130950 66 148 2.0 2.0 0.00 0.00 0.00 75 1015.9
20260510130446 66 138 2.0 2.0 0.00 0.00 0.00 76 1016.1
20260510125944 65 150 2.0 2.0 0.00 0.00 0.00 79 1015.8
20260510125440 64 142 1.0 2.0 0.00 0.00 0.00 80 1015.7
20260510124937 63 150 2.0 2.0 0.00 0.00 0.00 82 1015.7
20260510124433 63 157 2.0 3.0 0.00 0.00 0.00 85 1015.6
20260510123930 62 146 2.0 2.0 0.00 0.00 0.00 88 1015.7
20260510123425 61 160 1.0 2.0 0.00 0.00 0.00 90 1015.9
20260510122922 60 150 2.0 2.0 0.00 0.00 0.00 93 1015.8
20260510122417 60 156 1.0 2.0 0.00 0.00 0.00 96 1016.1
20260510121913 59 158 2.0 2.0 0.00 0.00 0.00 97 1015.6
20260510121411 58 143 2.0 2.0 0.00 0.00 0.00 98 1015.5
20260510120908 57 149 2.0 2.0 0.00 0.00 0.00 99 1015.3
20260510120405 57 153 2.0 2.0 0.00 0.00 0.00 99 1015.2
20260510115901 56 149 2.0 2.0 0.00 0.00 0.00 99 1015.3
20260510115358 55 156 2.0 2.0 0.00 0.00 0.00 99 1015.0
20260510114854 54 147 1.0 2.0 0.00 0.00 0.00 99 1015.1
20260510114351 54 142 2.0 2.0 0.00 0.00 0.00 99 1014.9
20260510113851 53 158 2.0 2.0 0.00 0.00 0.00 99 1014.9
20260510113347 53 153 2.0 2.0 0.00 0.00 0.00 98 1015.1
20260510112844 52 151 2.0 2.0 0.00 0.00 0.00 98 1015.0
20260510112342 52 144 1.0 2.0 0.00 0.00 0.00 98 1014.7
20260510111837 52 146 2.0 2.0 0.00 0.00 0.00 98 1014.7
20260510111334 51 150 2.0 2.0 0.00 0.00 0.00 98 1014.6
20260510110834 51 149 2.0 3.0 0.00 0.00 0.00 98 1014.6
20260510110332 51 158 2.0 2.0 0.00 0.00 0.00 98 1014.4
20260510105827 51 145 2.0 2.0 0.00 0.00 0.00 98 1014.4
20260510105322 51 154 2.0 2.0 0.00 0.00 0.00 98 1014.4
20260510104819 51 154 2.0 2.0 0.00 0.00 0.00 98 1014.8
20260510104316 51 152 2.0 2.0 0.00 0.00 0.00 98 1014.3
20260510103812 51 148 2.0 3.0 0.00 0.00 0.00 98 1014.4
20260510103309 51 152 2.0 3.0 0.00 0.00 0.00 98 1014.4
20260510102804 51 134 2.0 2.0 0.00 0.00 0.00 97 1014.4
20260510102300 51 153 2.0 3.0 0.00 0.00 0.00 97 1014.3
20260510101757 51 155 2.0 2.0 0.00 0.00 0.00 97 1014.2
20260510101255 51 138 2.0 2.0 0.00 0.00 0.00 97 1014.2
20260510100751 51 154 2.0 3.0 0.00 0.00 0.00 97 1014.2
20260510100249 52 153 2.0 3.0 0.00 0.00 0.00 97 1014.0
20260510095744 52 158 2.0 3.0 0.00 0.00 0.00 97 1013.9
20260510095239 52 160 2.0 2.0 0.00 0.00 0.00 97 1013.8
20260510094738 52 143 2.0 2.0 0.00 0.00 0.00 97 1013.6
20260510094234 52 159 2.0 3.0 0.00 0.00 0.00 97 1014.0
20260510093730 52 154 2.0 3.0 0.00 0.00 0.00 97 1013.8
20260510093228 52 156 2.0 2.0 0.00 0.00 0.00 97 1013.7
20260510092724 52 165 2.0 3.0 0.00 0.00 0.00 97 1013.8
20260510092220 53 152 2.0 3.0 0.00 0.00 0.00 97 1013.7
20260510091715 53 147 2.0 2.0 0.00 0.00 0.00 96 1013.7
20260510091212 53 149 2.0 2.0 0.00 0.00 0.00 96 1013.7
20260510090709 53 148 2.0 2.0 0.00 0.00 0.00 96 1013.4
20260510090206 53 142 2.0 2.0 0.00 0.00 0.00 97 1013.4
20260510085701 54 160 2.0 3.0 0.00 0.00 0.00 96 1013.4
20260510085156 54 166 3.0 3.0 0.00 0.00 0.00 96 1013.3
20260510084652 54 156 2.0 3.0 0.00 0.00 0.00 96 1013.3
20260510084149 54 152 2.0 2.0 0.00 0.00 0.00 96 1013.3
20260510083646 54 155 2.0 2.0 0.00 0.00 0.00 96 1013.2
20260510083143 54 154 2.0 2.0 0.00 0.00 0.00 96 1013.2
20260510082639 55 144 2.0 3.0 0.00 0.00 0.00 96 1013.1
20260510082135 55 140 2.0 2.0 0.00 0.00 0.00 96 1013.2
20260510081629 55 128 2.0 2.0 0.00 0.00 0.00 95 1013.0
20260510081126 55 153 2.0 2.0 0.00 0.00 0.00 95 1013.2
20260510080625 55 145 2.0 3.0 0.00 0.00 0.00 95 1012.9
20260510080122 56 151 2.0 3.0 0.00 0.00 0.00 95 1013.2
20260510075619 56 154 1.0 2.0 0.00 0.00 0.00 96 1013.1
20260510075116 56 137 1.0 2.0 0.00 0.00 0.00 96 1013.2
20260510074613 56 125 1.0 2.0 0.00 0.00 0.00 95 1012.8
20260510074109 56 170 2.0 2.0 0.00 0.00 0.00 95 1013.0
20260510073559 57 160 2.0 3.0 0.00 0.00 0.00 95 1012.8
20260510073057 57 160 2.0 2.0 0.00 0.00 0.00 95 1013.0
20260510072553 57 144 2.0 2.0 0.00 0.00 0.00 95 1012.9
20260510072049 57 170 2.0 2.0 0.00 0.00 0.00 94 1013.0
20260510071545 57 159 2.0 2.0 0.00 0.00 0.00 94 1012.8
20260510071044 57 164 2.0 3.0 0.00 0.00 0.00 94 1012.8
20260510070540 57 158 2.0 3.0 0.00 0.00 0.00 94 1013.0
20260510070037 58 149 2.0 3.0 0.00 0.00 0.00 93 1012.7
20260510065533 58 150 2.0 3.0 0.00 0.00 0.00 93 1012.7
20260510065029 58 150 2.0 2.0 0.00 0.00 0.00 92 1013.0
20260510064526 58 134 1.0 2.0 0.00 0.00 0.00 92 1012.7
20260510064023 59 139 2.0 2.0 0.00 0.00 0.00 92 1013.0
20260510063520 59 136 1.0 2.0 0.00 0.00 0.00 92 1012.9
20260510063017 59 155 2.0 2.0 0.00 0.00 0.00 91 1012.7
20260510062512 59 144 2.0 2.0 0.00 0.00 0.00 91 1012.9
20260510062008 59 144 2.0 2.0 0.00 0.00 0.00 91 1012.8
20260510061505 60 154 2.0 2.0 0.00 0.00 0.00 91 1012.9
20260510061001 60 161 2.0 2.0 0.00 0.00 0.00 91 1012.9
20260510060458 60 150 2.0 2.0 0.00 0.00 0.00 90 1012.9
20260510055954 60 141 2.0 2.0 0.00 0.00 0.00 91 1012.8
20260510055450 60 154 2.0 2.0 0.00 0.00 0.00 91 1012.7
20260510054948 60 158 2.0 2.0 0.00 0.00 0.00 90 1012.7
20260510054443 60 160 2.0 2.0 0.00 0.00 0.00 90 1012.9
20260510053938 60 158 2.0 2.0 0.00 0.00 0.00 89 1012.9
20260510053434 60 151 2.0 2.0 0.00 0.00 0.00 88 1012.9
20260510052931 60 142 2.0 2.0 0.00 0.00 0.00 88 1012.9
20260510052426 61 158 2.0 2.0 0.00 0.00 0.00 88 1012.8
20260510051923 61 150 2.0 2.0 0.00 0.00 0.00 87 1013.0
20260510051419 61 147 2.0 2.0 0.00 0.00 0.00 87 1012.9
20260510050916 61 149 2.0 2.0 0.00 0.00 0.00 87 1012.9
20260510050413 61 156 2.0 2.0 0.00 0.00 0.00 86 1012.9
20260510045910 61 160 2.0 2.0 0.00 0.00 0.00 86 1012.9
20260510045407 61 161 2.0 2.0 0.00 0.00 0.00 85 1012.9
20260510044904 61 149 2.0 2.0 0.00 0.00 0.00 85 1012.9
20260510044400 61 154 2.0 2.0 0.00 0.00 0.00 84 1012.9
20260510043857 61 143 2.0 2.0 0.00 0.00 0.00 84 1013.0
20260510043353 61 159 2.0 2.0 0.00 0.00 0.00 84 1012.7
20260510042851 61 148 2.0 2.0 0.00 0.00 0.00 84 1012.9
20260510042346 61 166 2.0 2.0 0.00 0.00 0.00 84 1012.9
20260510041843 61 159 2.0 2.0 0.00 0.00 0.00 83 1012.9
20260510041340 61 148 2.0 2.0 0.00 0.00 0.00 83 1012.5
20260510040838 61 156 2.0 2.0 0.00 0.00 0.00 83 1012.9
20260510040334 61 151 2.0 2.0 0.00 0.00 0.00 83 1012.6
20260510035829 61 167 2.0 2.0 0.00 0.00 0.00 82 1012.6
20260510035326 62 152 2.0 2.0 0.00 0.00 0.00 82 1012.4
20260510034822 62 155 2.0 2.0 0.00 0.00 0.00 81 1012.6
20260510034320 62 166 2.0 2.0 0.00 0.00 0.00 81 1012.6
20260510033816 62 148 2.0 2.0 0.00 0.00 0.00 80 1012.4
20260510033313 62 155 2.0 2.0 0.00 0.00 0.00 80 1012.4
20260510032810 63 156 2.0 2.0 0.00 0.00 0.00 79 1012.6
20260510032306 63 146 2.0 2.0 0.00 0.00 0.00 79 1012.4
20260510031801 63 153 2.0 2.0 0.00 0.00 0.00 78 1012.3
20260510031257 63 158 2.0 2.0 0.00 0.00 0.00 78 1012.3
20260510030751 63 159 2.0 3.0 0.00 0.00 0.00 79 1012.4
20260510030248 63 158 2.0 2.0 0.00 0.00 0.00 79 1012.5
20260510025746 63 155 2.0 2.0 0.00 0.00 0.00 79 1012.3
20260510025244 62 151 2.0 2.0 0.00 0.00 0.00 79 1012.4
20260510024740 62 159 2.0 2.0 0.00 0.00 0.00 79 1012.3
20260510024236 62 156 2.0 3.0 0.00 0.00 0.00 79 1012.1
20260510023732 62 147 2.0 2.0 0.00 0.00 0.00 79 1012.2
20260510023229 62 149 2.0 2.0 0.00 0.00 0.00 79 1012.4
20260510022725 62 149 2.0 2.0 0.00 0.00 0.00 79 1012.3
20260510022220 62 154 2.0 2.0 0.00 0.00 0.00 78 1011.9
20260510021715 63 153 2.0 2.0 0.00 0.00 0.00 79 1012.0
20260510021213 62 153 2.0 2.0 0.00 0.00 0.00 79 1011.9
20260510020707 62 154 2.0 2.0 0.00 0.00 0.00 79 1011.7
20260510020202 62 147 2.0 2.0 0.00 0.00 0.00 78 1011.8
20260510015658 63 142 1.0 2.0 0.00 0.00 0.00 78 1011.7
20260510015155 63 151 2.0 2.0 0.00 0.00 0.00 78 1011.7
20260510014650 63 153 2.0 2.0 0.00 0.00 0.00 78 1011.5
20260510014148 63 162 2.0 2.0 0.00 0.00 0.00 77 1011.5
20260510013643 63 155 2.0 2.0 0.00 0.00 0.00 76 1011.6
20260510013139 64 157 2.0 2.0 0.00 0.00 0.00 76 1011.6
20260510012638 64 155 2.0 2.0 0.00 0.00 0.00 77 1011.3
20260510012134 64 161 2.0 2.0 0.00 0.00 0.00 75 1011.2
20260510011629 64 162 2.0 3.0 0.00 0.00 0.00 76 1011.4
20260510011125 65 160 2.0 2.0 0.00 0.00 0.00 75 1011.3
20260510010621 65 156 2.0 2.0 0.00 0.00 0.00 73 1011.3
20260510010119 65 159 2.0 2.0 0.00 0.00 0.00 72 1011.1
20260510005614 65 158 2.0 2.0 0.00 0.00 0.00 70 1011.2
20260510005111 66 155 2.0 2.0 0.00 0.00 0.00 70 1010.8
20260510004609 66 157 2.0 2.0 0.00 0.00 0.00 70 1010.9
20260510004107 66 158 2.0 2.0 0.00 0.00 0.00 69 1010.9
20260510003604 67 153 2.0 2.0 0.00 0.00 0.00 70 1010.7
20260510003100 67 158 2.0 2.0 0.00 0.00 0.00 68 1010.9
20260510002554 68 148 2.0 2.0 0.00 0.00 0.00 70 1010.8
20260510002051 68 151 1.0 2.0 0.00 0.00 0.00 68 1010.6
20260510001548 69 163 2.0 2.0 0.00 0.00 0.00 65 1010.7
20260510001048 69 161 2.0 2.0 0.00 0.00 0.00 64 1010.7
20260510000542 70 153 2.0 2.0 0.00 0.00 0.00 63 1010.6
20260510000039 70 159 2.0 2.0 0.00 0.00 0.00 63 1010.6
20260509235536 71 161 2.0 2.0 0.00 0.00 0.00 64 1010.4
20260509235033 71 161 1.0 2.0 0.00 0.00 0.00 60 1010.2
20260509234529 72 153 1.0 2.0 0.00 0.00 0.00 59 1010.1
20260509234027 72 173 1.0 2.0 0.00 0.00 0.00 54 1010.2
20260509233524 73 183 1.0 2.0 0.00 0.00 0.00 54 1010.4
20260509233021 73 164 2.0 2.0 0.00 0.00 0.00 53 1010.2
20260509232518 74 169 2.0 2.0 0.00 0.00 0.00 51 1010.1
20260509232015 74 170 2.0 2.0 0.00 0.00 0.00 50 1010.5
20260509231511 74 175 2.0 2.0 0.00 0.00 0.00 50 1010.1
20260509231009 74 167 1.0 2.0 0.00 0.00 0.00 51 1010.3
20260509230505 75 163 2.0 2.0 0.00 0.00 0.00 50 1010.4
20260509230002 75 177 2.0 3.0 0.00 0.00 0.00 50 1010.2
20260509225458 75 165 2.0 2.0 0.00 0.00 0.00 49 1010.2
20260509224953 75 175 1.0 3.0 0.00 0.00 0.00 49 1010.0
20260509224449 75 186 1.0 2.0 0.00 0.00 0.00 49 1010.0
20260509223946 75 148 2.0 3.0 0.00 0.00 0.00 48 1010.1
20260509223443 76 167 1.0 3.0 0.00 0.00 0.00 48 1010.2
20260509222940 76 176 2.0 3.0 0.00 0.00 0.00 49 1010.2
20260509222435 76 173 1.0 3.0 0.00 0.00 0.00 49 1010.2
20260509221932 76 185 2.0 3.0 0.00 0.00 0.00 48 1010.2
20260509221429 75 159 0.0 2.0 0.00 0.00 0.00 49 1010.2
20260509220924 75 168 2.0 2.0 0.00 0.00 0.00 49 1010.0
20260509220420 75 161 2.0 2.0 0.00 0.00 0.00 48 1010.3
20260509215917 75 185 1.0 3.0 0.00 0.00 0.00 49 1010.1
20260509215412 76 159 2.0 2.0 0.00 0.00 0.00 49 1010.0
20260509214910 76 142 2.0 2.0 0.00 0.00 0.00 47 1009.8
20260509214407 77 195 2.0 3.0 0.00 0.00 0.00 48 1009.8
20260509213904 75 166 1.0 2.0 0.00 0.00 0.00 48 1009.8
20260509213359 75 146 2.0 2.0 0.00 0.00 0.00 48 1009.8
20260509212858 75 166 3.0 3.0 0.00 0.00 0.00 47 1009.7
20260509212355 75 153 2.0 3.0 0.00 0.00 0.00 46 1009.8
20260509211851 76 158 2.0 3.0 0.00 0.00 0.00 48 1010.0
20260509211346 76 188 1.0 3.0 0.00 0.00 0.00 49 1009.6
20260509210843 76 54 2.0 3.0 0.00 0.00 0.00 49 1009.6
20260509210341 77 156 2.0 2.0 0.00 0.00 0.00 48 1009.7
20260509205840 77 130 2.0 2.0 0.00 0.00 0.00 45 1009.6
20260509205335 77 240 0.0 2.0 0.00 0.00 0.00 47 1009.6
20260509204832 77 158 3.0 4.0 0.00 0.00 0.00 47 1009.5
20260509204328 76 145 1.0 3.0 0.00 0.00 0.00 49 1009.4
20260509203824 76 184 2.0 3.0 0.00 0.00 0.00 49 1009.6
20260509203321 77 189 2.0 2.0 0.00 0.00 0.00 47 1009.4
20260509202817 78 167 1.0 3.0 0.00 0.00 0.00 44 1009.4
20260509202314 78 232 0.0 2.0 0.00 0.00 0.00 45 1009.2
20260509201813 78 175 0.0 2.0 0.00 0.00 0.00 46 1009.1
20260509201310 78 125 3.0 3.0 0.00 0.00 0.00 47 1009.5
20260509200807 77 196 0.0 1.0 0.00 0.00 0.00 46 1009.6
20260509200302 77 193 0.0 2.0 0.00 0.00 0.00 46 1009.7
20260509195758 78 202 1.0 2.0 0.00 0.00 0.00 44 1009.7
20260509195253 78 210 3.0 3.0 0.00 0.00 0.00 44 1010.0
20260509194748 77 144 0.0 2.0 0.00 0.00 0.00 45 1010.0
20260509194244 77 259 0.0 2.0 0.00 0.00 0.00 46 1010.1
20260509193741 77 96 0.0 2.0 0.00 0.00 0.00 49 1010.2
20260509193241 76 215 0.0 2.0 0.00 0.00 0.00 47 1010.3
20260509192737 75 157 1.0 2.0 0.00 0.00 0.00 48 1010.3
20260509192232 76 184 0.0 2.0 0.00 0.00 0.00 48 1010.4
20260509191728 78 175 2.0 2.0 0.00 0.00 0.00 44 1010.6
20260509191225 78 74 0.0 1.0 0.00 0.00 0.00 45 1010.3
20260509190721 77 188 3.0 3.0 0.00 0.00 0.00 47 1010.6
20260509190218 76 213 0.0 3.0 0.00 0.00 0.00 49 1010.7
20260509185716 75 163 0.0 3.0 0.00 0.00 0.00 50 1010.9
20260509185212 76 150 1.0 3.0 0.00 0.00 0.00 47 1010.9
20260509184709 77 225 0.0 3.0 0.00 0.00 0.00 45 1011.0
20260509184207 78 153 1.0 3.0 0.00 0.00 0.00 46 1010.9
20260509183703 77 101 1.0 3.0 0.00 0.00 0.00 46 1011.1
20260509183158 78 112 1.0 2.0 0.00 0.00 0.00 46 1011.3
20260509182654 77 184 1.0 3.0 0.00 0.00 0.00 46 1011.0
20260509182152 75 173 2.0 3.0 0.00 0.00 0.00 50 1011.1
20260509181649 73 175 2.0 3.0 0.00 0.00 0.00 51 1011.4
20260509181146 73 148 2.0 3.0 0.00 0.00 0.00 50 1011.4
20260509180643 74 83 0.0 3.0 0.00 0.00 0.00 52 1011.6
20260509180139 75 142 1.0 2.0 0.00 0.00 0.00 50 1011.3
20260509175635 75 140 2.0 3.0 0.00 0.00 0.00 50 1011.5
20260509175132 74 160 0.0 2.0 0.00 0.00 0.00 49 1011.5
20260509174628 75 213 1.0 2.0 0.00 0.00 0.00 48 1011.8
20260509174123 75 80 2.0 2.0 0.00 0.00 0.00 49 1011.4
20260509173619 76 128 3.0 4.0 0.00 0.00 0.00 46 1011.4
20260509173115 75 77 3.0 4.0 0.00 0.00 0.00 51 1011.3
20260509172612 74 144 1.0 3.0 0.00 0.00 0.00 52 1011.4
20260509172108 74 221 2.0 2.0 0.00 0.00 0.00 49 1011.4
20260509171604 74 141 0.0 3.0 0.00 0.00 0.00 50 1011.6
20260509171100 75 122 3.0 6.0 0.00 0.00 0.00 49 1011.9
20260509170556 75 213 0.0 3.0 0.00 0.00 0.00 49 1011.8
20260509170053 74 220 1.0 6.0 0.00 0.00 0.00 50 1011.8
20260509165551 73 196 2.0 3.0 0.00 0.00 0.00 51 1011.7
20260509165047 73 143 3.0 5.0 0.00 0.00 0.00 52 1012.0
20260509164543 73 164 1.0 5.0 0.00 0.00 0.00 52 1012.0
20260509164044 73 150 2.0 5.0 0.00 0.00 0.00 51 1012.3
20260509163543 73 161 2.0 3.0 0.00 0.00 0.00 50 1012.4
20260509163038 73 23 2.0 3.0 0.00 0.00 0.00 51 1012.1
20260509162535 72 98 2.0 5.0 0.00 0.00 0.00 51 1012.4
20260509162031 71 183 1.0 3.0 0.00 0.00 0.00 52 1012.2
20260509161527 70 146 2.0 3.0 0.00 0.00 0.00 53 1012.3
20260509161022 71 115 3.0 6.0 0.00 0.00 0.00 49 1012.3
20260509160518 72 159 4.0 5.0 0.00 0.00 0.00 50 1012.4
20260509160014 72 66 2.0 2.0 0.00 0.00 0.00 51 1012.5
20260509155510 71 163 1.0 3.0 0.00 0.00 0.00 50 1012.7
20260509155006 71 184 1.0 6.0 0.00 0.00 0.00 51 1012.7
20260509154502 71 151 0.0 2.0 0.00 0.00 0.00 53 1012.5
20260509154000 71 155 3.0 3.0 0.00 0.00 0.00 53 1012.9
20260509153457 71 142 2.0 3.0 0.00 0.00 0.00 55 1013.0
20260509152953 71 173 2.0 3.0 0.00 0.00 0.00 54 1012.8
20260509152449 71 233 0.0 4.0 0.00 0.00 0.00 55 1013.2
20260509151947 71 97 3.0 4.0 0.00 0.00 0.00 57 1013.0
20260509151443 70 161 1.0 3.0 0.00 0.00 0.00 57 1013.1